GFSFLT2_500_rhum_000.txt.gz
RH
7 6 4 3 5 11 18 23 28 27 21 15 11 9 12 14 14 14 13 12 10 6 6 6 5 5 4
4 3 8 14 20 26 28 28 20 13 10 14 25 27 26 25 23 18 15 16 16 12 8 7 7 6 6
4 12 16 22 27 30 24 14 10 24 20 16 18 18 23 20 15 17 21 20 16 14 11 10 10 9 8
17 20 22 24 28 21 12 14 22 27 28 51 39 37 26 19 15 12 10 8 7 6 6 8 9 10 9
24 23 23 27 24 15 15 24 60 90 72 100 51 55 37 21 14 7 5 5 5 4 4 5 5 4 8
12 11 12 13 11 16 48 67 80 100 86 93 46 40 21 9 10 18 37 53 56 32 13 7 4 4 5
13 11 10 11 20 54 77 77 75 90 60 55 47 10 5 14 42 72 99 100 100 94 82 57 20 8 5
11 12 20 31 70 75 78 77 82 85 54 34 19 14 27 56 74 98 100 100 100 97 86 100 91 24 11
23 24 71 88 87 87 87 87 100 100 77 69 46 37 56 73 89 85 100 98 100 100 93 98 31 15 15
74 100 98 100 100 94 97 100 100 100 93 99 78 63 61 76 79 78 100 100 100 99 75 8 6 7 11
98 100 100 99 100 100 100 99 99 100 96 100 100 92 85 87 100 84 88 100 100 96 64 10 11 7 9
100 99 100 100 100 100 100 97 90 92 100 100 100 100 100 100 90 100 98 100 63 98 100 30 22 12 8
100 100 100 100 100 100 100 100 100 94 100 100 92 100 86 99 100 92 89 100 100 100 100 32 17 48 39
99 98 100 100 100 100 100 100 100 100 100 100 100 97 90 86 99 93 100 96 100 89 18 4 8 59 91
99 100 100 100 100 100 100 100 100 100 100 100 98 38 91 100 94 88 100 92 48 49 35 21 1 10 57
100 99 99 100 100 100 99 100 100 100 100 100 59 47 66 50 67 99 89 93 100 100 96 58 77 19 19
54 59 87 97 98 99 100 100 100 100 100 100 69 58 31 77 100 100 100 98 100 100 100 72 100 96 28

GFSFLT2_500_rhum_003.txt.gz
RH
8 8 7 5 3 2 3 7 13 17 22 26 26 24 16 10 9 10 11 10 9 10 9 8 8 8 8
6 4 3 5 7 8 12 16 18 20 25 27 28 16 20 20 17 15 13 13 12 14 16 19 23 20 15
3 4 6 7 9 12 14 14 17 22 26 23 17 26 48 63 40 24 21 25 26 20 18 18 18 19 19
6 6 10 13 12 13 13 15 13 14 14 24 65 86 75 67 55 51 46 33 34 25 18 17 13 13 21
9 11 11 9 10 10 9 9 13 28 46 84 84 76 79 77 68 54 33 12 9 8 5 4 5 6 7
11 8 6 7 9 16 30 54 81 100 86 88 84 87 75 63 24 4 6 31 61 71 67 59 46 23 11
11 12 19 38 64 86 100 100 100 100 70 94 92 74 56 36 20 18 46 66 81 97 100 100 99 92 72
19 52 75 82 87 95 94 100 100 100 76 97 88 98 75 54 40 54 65 81 96 94 97 99 98 100 93
68 77 88 94 93 99 100 100 100 99 94 100 100 99 100 82 59 53 68 90 93 96 100 100 87 71 39
90 94 95 100 98 95 96 99 100 100 97 100 100 91 100 94 81 69 84 91 96 100 100 84 78 30 7
90 96 98 100 100 100 100 95 89 96 98 95 99 80 74 96 94 84 95 100 100 100 98 84 70 58 26
94 94 98 100 100 100 100 98 94 90 100 100 99 99 95 93 100 100 96 79 97 100 100 100 42 67 48
97 99 100 97 100 100 100 100 100 96 100 100 88 60 82 98 93 92 87 86 98 69 76 56 38 21 18
100 98 95 94 98 100 100 100 100 100 100 98 52 91 74 84 96 100 100 98 100 100 39 3 71 39 16
83 64 68 90 94 100 100 100 95 100 99 54 58 60 74 97 100 96 100 100 92 86 86 2 79 97 22
20 18 21 25 67 100 100 100 96 100 86 53 60 75 92 94 100 100 100 82 99 100 100 46 22 96 100
15 12 15 20 25 53 98 100 97 98 100 76 45 93 100 100 100 100 100 90 91 99 100 100 74 36 96

GFSFLT2_500_rhum_006.txt.gz
RH
12 9 7 8 8 4 3 4 5 6 8 11 12 12 13 15 18 18 18 18 15 11 10 12 12 10 8
7 7 6 4 4 5 6 7 7 7 8 10 11 13 16 15 14 15 15 14 10 18 22 28 25 18 14
6 3 4 5 6 8 4 4 6 7 7 9 11 12 13 13 12 11 11 25 37 46 44 48 47 30 20
4 6 6 8 10 23 40 42 40 32 31 31 22 25 27 30 44 57 58 63 71 72 68 59 27 12 13
6 7 11 19 49 58 65 74 96 78 72 88 87 92 94 83 74 69 57 45 36 26 16 7 8 8 6
8 18 51 53 63 75 80 88 94 87 81 100 87 96 90 92 86 80 60 30 16 10 11 35 53 52 48
35 59 54 62 77 84 92 98 89 80 87 100 93 100 96 97 88 92 63 34 38 62 81 89 82 85 81
67 64 65 73 74 78 82 98 100 90 76 98 96 99 100 99 88 96 64 47 70 83 100 90 79 95 95
67 70 79 83 83 77 80 87 99 100 89 98 98 98 100 80 72 84 73 62 76 90 88 88 91 100 95
81 86 86 90 87 82 80 82 82 97 96 98 100 75 99 77 95 97 89 91 92 90 90 97 100 100 94
82 88 90 88 90 90 87 84 80 93 89 89 52 40 44 81 98 90 88 94 91 86 95 97 92 100 100
85 88 87 88 94 95 93 91 82 90 94 57 49 67 84 88 87 89 89 93 96 98 98 94 16 36 52
85 77 69 58 51 88 95 96 93 94 88 39 47 65 80 85 88 91 100 100 100 99 90 57 43 59 69
38 24 16 15 17 28 85 100 100 100 81 47 49 65 63 72 89 100 100 100 100 99 62 26 94 52 43
30 25 18 12 12 18 31 97 99 100 91 42 59 63 78 91 97 100 100 100 100 100 73 37 99 28 13
36 37 28 17 15 19 23 55 100 97 100 46 64 78 84 97 100 100 100 100 100 100 100 96 80 53 11
43 45 42 24 21 21 27 35 92 95 100 96 50 81 94 87 98 99 100 100 100 99 100 94 64 89 27

GFSFLT2_500_rhum_009.txt.gz
RH
13 13 11 9 8 6 3 3 4 4 6 8 17 21 6 3 4 5 5 8 13 15 14 17 17 12 11
15 12 10 6 4 4 5 6 9 14 40 46 47 50 40 26 12 8 9 11 13 14 16 18 27 25 22
12 11 4 4 5 5 13 39 52 54 56 57 66 61 66 66 62 72 65 27 15 14 15 16 19 21 20
10 3 4 6 12 37 46 59 68 66 63 69 70 72 67 63 71 74 76 70 74 82 76 62 55 57 63
3 5 6 19 56 53 58 73 84 66 68 90 77 81 74 75 78 82 78 84 94 81 65 61 50 43 57
6 5 14 55 56 58 70 78 92 80 69 100 80 90 79 80 69 65 80 98 99 92 61 21 17 21 22
5 16 54 56 56 71 82 82 86 84 76 94 92 97 87 73 70 78 68 95 100 66 38 56 66 60 63
25 66 64 66 65 67 74 84 88 91 67 90 81 90 45 46 40 53 85 95 89 51 71 82 93 93 83
65 65 66 66 64 70 76 79 82 96 80 87 75 49 22 30 44 46 99 96 78 66 76 89 83 75 72
73 75 73 73 71 68 64 76 74 93 89 94 46 32 66 50 68 80 85 97 93 90 94 96 79 75 91
92 87 84 78 65 50 42 43 75 88 77 89 34 32 35 69 82 89 90 92 94 96 95 88 89 87 89
87 78 58 38 22 16 16 17 45 78 88 89 28 34 68 78 89 100 99 97 100 100 100 100 83 39 59
35 32 29 27 25 16 10 16 22 68 91 87 30 45 58 78 90 78 96 100 100 100 100 56 48 96 87
32 29 26 28 28 24 14 15 24 75 92 91 39 60 71 80 70 95 100 90 100 98 100 100 79 80 37
32 35 34 33 33 26 18 17 20 81 100 93 48 68 87 97 90 90 100 100 100 100 98 86 69 35 13
35 41 49 49 48 34 23 17 22 60 100 100 47 70 83 88 99 100 100 100 100 100 98 83 73 63 11
41 51 58 54 43 33 30 27 29 41 96 100 82 56 85 100 95 97 100 100 96 100 94 92 94 75 50

GFSFLT2_500_rhum_012.txt.gz
RH
30 22 16 16 16 12 9 5 2 3 4 4 18 32 40 50 44 39 37 40 37 26 8 5 5 4 4
18 14 11 11 10 7 3 3 5 5 28 44 42 55 56 45 48 52 56 56 56 52 44 31 15 9 8
12 11 10 8 5 3 4 5 14 48 47 46 62 64 57 51 49 50 56 64 69 76 76 70 59 44 11
12 12 7 3 4 4 5 46 58 53 62 64 62 60 58 45 45 54 62 76 78 80 91 93 85 69 65
11 5 3 5 4 14 59 59 82 57 64 81 66 65 58 53 62 69 61 52 64 61 56 85 98 100 86
4 4 5 3 32 64 64 64 75 82 66 89 67 81 68 74 73 32 14 15 24 36 58 65 97 92 72
6 5 4 43 60 67 71 68 74 74 68 98 80 84 77 66 22 18 19 23 23 73 84 70 82 48 49
6 18 58 62 62 66 67 70 81 76 60 87 75 86 73 27 22 25 38 71 100 93 84 80 53 56 70
50 66 66 70 63 62 65 59 52 45 56 79 73 95 51 23 55 77 85 81 85 98 93 86 85 82 74
80 78 76 75 68 62 54 42 28 17 22 77 84 83 32 41 72 72 82 88 89 94 99 100 100 100 97
70 49 37 33 29 26 22 19 18 11 12 60 95 70 25 64 74 75 69 83 98 100 100 98 100 79 58
38 38 38 35 31 28 27 26 24 15 12 44 96 58 40 57 76 84 100 99 91 94 99 100 99 88 58
27 27 29 29 30 32 34 28 27 17 11 28 97 67 45 55 78 83 70 100 100 100 100 100 94 100 82
25 26 28 30 37 40 47 43 32 24 14 16 99 81 57 66 70 88 94 80 83 100 100 100 90 63 57
30 36 44 48 52 44 45 40 28 23 40 34 76 92 63 76 99 98 88 94 100 100 100 100 81 88 84
46 43 47 52 57 60 61 61 40 29 37 51 93 98 59 65 62 93 100 99 100 100 100 94 88 100 93
68 67 78 86 78 80 73 60 56 44 39 51 96 100 62 65 87 77 100 100 100 100 100 84 88 80 53

GFSFLT2_500_rhum_015.txt.gz
RH
44 35 23 17 14 11 8 7 7 6 4 3 3 3 3 13 34 44 54 46 36 43 48 48 44 39 27
26 20 16 14 12 10 9 7 3 3 4 4 3 21 39 44 56 58 53 47 54 57 60 57 54 54 56
18 15 13 10 8 6 3 3 4 5 4 19 42 53 52 60 58 57 60 64 58 55 60 64 60 50 47
14 8 7 7 4 3 3 5 5 26 56 51 51 53 64 60 60 62 56 51 56 50 37 18 16 43 47
7 8 4 3 3 5 5 8 65 68 55 78 58 66 67 64 60 69 69 65 32 18 15 16 15 16 28
8 3 3 4 5 11 49 59 64 97 54 83 64 75 68 69 72 79 72 21 15 18 12 21 45 52 74
3 3 6 28 49 59 67 71 79 78 61 72 69 66 67 75 81 76 26 25 37 52 48 53 78 89 85
10 29 52 57 54 59 62 66 76 72 55 52 36 28 37 68 81 48 32 47 66 74 81 85 78 69 73
50 52 50 44 31 22 23 21 25 32 29 25 19 18 21 54 78 29 50 56 65 64 75 81 89 100 100
39 32 30 30 28 26 26 26 26 29 26 22 20 13 35 68 71 38 59 65 62 73 77 90 93 86 89
32 28 23 22 22 22 22 21 20 20 18 16 21 16 13 100 67 36 59 80 82 85 100 100 100 89 89
24 27 27 24 23 25 30 30 33 26 29 20 20 16 18 100 53 63 77 87 91 94 100 99 99 100 99
36 41 39 36 35 39 52 52 54 41 40 35 21 17 31 93 50 62 82 100 100 100 100 100 100 98 100
38 41 48 55 59 62 65 62 58 64 60 33 21 15 39 90 47 66 88 91 92 90 87 100 99 100 92
41 46 58 67 73 72 69 61 66 57 64 66 39 21 44 92 57 56 89 100 94 87 93 100 98 84 77
54 61 77 84 87 96 85 61 48 54 58 48 44 47 84 83 42 54 94 99 94 100 97 92 96 78 100
68 81 96 100 99 96 88 75 59 46 46 41 38 69 100 98 49 60 84 96 91 100 100 80 70 97 100

GFSFLT2_500_rhum_018.txt.gz
RH
41 35 26 20 16 13 9 7 6 5 5 4 4 3 3 3 3 3 5 29 39 46 52 61 64 49 33
26 19 15 12 9 8 6 6 5 4 3 3 3 4 4 4 21 41 43 58 68 68 63 55 51 52 48
17 14 10 7 7 6 5 4 3 3 3 4 6 14 46 53 50 49 55 73 70 65 64 64 59 59 60
13 9 7 6 5 4 3 4 7 15 23 43 48 56 60 61 60 62 68 76 71 67 64 58 48 27 21
8 7 6 6 4 4 11 20 47 54 46 72 52 65 68 64 64 66 70 71 66 68 66 40 21 21 16
8 7 5 3 6 20 33 37 43 64 46 62 58 71 61 65 61 57 57 70 70 68 35 24 27 42 49
6 4 4 19 35 33 34 30 27 26 20 19 39 57 56 50 48 39 31 58 74 58 26 39 55 63 59
4 6 27 35 24 20 21 21 23 24 22 18 24 27 25 23 22 20 19 41 75 33 37 55 54 73 86
17 32 24 24 19 15 16 17 17 20 21 14 21 19 21 26 19 15 16 48 66 39 52 56 57 68 73
24 24 21 20 22 25 25 22 22 29 40 20 24 19 20 28 21 14 16 61 55 43 60 61 71 77 67
17 19 22 28 33 36 41 36 37 43 51 38 34 31 19 23 29 21 15 56 47 50 66 71 82 84 75
19 26 32 38 40 44 51 54 57 49 55 62 47 39 34 30 21 38 31 56 45 65 78 91 100 98 94
30 36 43 52 56 56 73 69 75 74 62 47 51 44 34 21 18 50 71 86 45 73 86 91 98 94 83
47 56 58 62 71 76 87 91 86 87 85 49 46 48 36 26 22 62 93 67 82 96 100 100 100 91 80
42 45 58 74 97 97 94 90 85 74 70 60 49 48 34 29 82 90 70 62 69 86 94 93 100 70 62
34 51 73 91 91 94 90 84 80 79 60 56 39 46 45 72 56 58 73 91 88 64 67 70 83 86 83
38 66 87 83 77 92 95 83 60 58 54 38 34 41 91 100 49 56 76 80 59 84 89 65 60 97 91

GFSFLT2_500_rhum_021.txt.gz
RH
54 45 38 29 21 17 15 13 11 10 10 9 8 5 4 3 3 4 3 3 4 5 10 19 24 24 18
42 33 23 20 16 14 12 11 10 9 7 5 4 3 5 11 23 26 37 42 50 56 56 61 62 63 61
27 22 19 16 14 12 10 8 7 5 3 4 9 20 28 32 35 42 47 52 62 66 61 65 73 74 74
23 18 12 7 7 8 7 6 4 4 14 23 30 35 34 30 37 43 46 55 66 70 69 71 72 74 74
14 9 8 9 9 6 4 4 15 32 34 29 26 27 26 22 21 34 41 50 60 61 61 69 70 70 70
10 10 7 5 4 4 8 20 22 24 15 14 19 20 23 26 23 23 40 50 51 49 43 51 65 67 40
8 6 5 4 6 14 15 11 14 15 13 13 17 15 17 20 24 22 26 39 40 34 35 31 54 66 33
6 4 4 11 13 11 13 15 19 24 26 22 25 23 23 24 22 20 19 21 21 18 16 20 47 55 37
4 8 13 13 15 17 23 28 34 40 46 32 35 32 37 49 40 25 18 17 17 18 16 18 63 46 44
14 15 17 20 27 33 37 40 43 42 54 45 44 43 33 61 67 43 24 16 15 17 17 27 67 42 54
19 21 29 38 44 44 49 50 58 60 69 58 52 47 42 40 64 50 45 26 14 15 17 58 58 44 58
24 30 32 31 35 50 71 78 89 82 74 74 63 53 48 43 55 60 44 31 20 15 22 75 46 58 67
27 23 24 28 45 68 87 92 99 100 93 75 64 55 58 47 42 53 36 34 16 17 74 53 51 68 70
22 30 30 41 74 88 82 77 77 81 93 71 69 53 53 39 36 44 40 43 56 73 48 52 72 82 86
40 33 37 53 68 71 75 87 84 63 56 60 65 55 38 36 72 96 100 94 70 68 68 85 99 92 79
40 29 37 42 48 63 67 64 61 56 38 39 34 38 45 68 75 90 86 95 97 78 66 72 100 77 39
35 48 58 47 35 36 41 46 51 39 36 60 91 100 100 86 60 65 90 94 88 93 88 70 55 45 52

GFSFLT2_500_rhum_024.txt.gz
RH
55 51 54 50 44 36 27 22 21 18 14 12 12 12 9 6 5 4 3 3 3 4 7 14 15 12 8
59 57 48 39 29 24 22 19 13 10 10 11 8 6 6 4 3 3 5 10 20 25 26 31 31 32 31
53 43 32 27 24 21 13 9 9 10 9 6 4 3 4 8 15 22 27 27 26 26 28 39 42 42 39
37 28 27 24 15 10 9 11 13 8 6 5 6 13 15 15 14 14 14 18 19 24 23 47 52 54 60
27 23 15 11 9 10 12 10 4 5 7 12 12 11 12 13 14 14 12 10 10 16 21 47 52 55 61
16 12 11 10 10 9 7 4 7 14 13 13 16 17 22 24 28 25 20 16 11 10 20 32 50 53 51
14 11 11 9 5 4 8 13 14 18 20 19 26 29 35 37 38 33 29 23 16 11 15 24 40 48 42
12 9 5 4 6 13 14 16 21 26 33 16 24 26 28 44 50 48 41 30 21 16 15 22 25 28 25
8 4 5 13 14 16 19 18 19 23 44 25 33 37 43 57 74 80 65 43 35 28 24 20 23 23 21
4 11 16 19 21 19 20 26 28 28 52 33 45 58 45 74 98 100 92 64 45 36 27 22 25 21 18
17 19 25 23 24 32 32 30 33 43 70 52 39 45 50 57 73 87 72 54 47 44 30 24 25 22 18
21 24 25 37 37 31 34 39 47 52 72 71 50 45 44 62 55 66 67 53 49 47 30 24 20 20 17
25 32 40 38 37 50 42 38 54 75 78 59 40 45 57 43 39 49 41 50 37 31 21 21 40 36 54
36 44 42 41 63 25 24 32 39 48 53 40 39 41 35 36 50 58 51 42 30 44 84 76 58 53 53
40 46 38 70 50 32 34 36 35 38 42 40 40 55 74 78 92 85 92 95 96 78 59 73 63 50 54
46 45 46 74 80 84 84 85 86 90 94 100 100 100 90 73 82 97 96 81 93 73 56 66 100 78 61
53 42 49 77 80 84 85 85 91 83 74 84 93 88 81 72 77 65 85 86 100 100 88 65 88 93 66

GFSFLT2_500_rhum_027.txt.gz
RH
78 75 69 57 64 65 57 44 36 29 27 25 22 18 17 17 15 14 10 7 6 5 4 3 3 2 3
72 60 65 74 61 48 37 29 27 23 19 19 18 16 15 11 7 6 5 4 4 3 4 6 8 9 12
63 77 67 52 39 32 30 26 21 18 16 14 12 9 7 5 4 4 5 8 9 9 10 10 13 23 27
75 56 44 36 34 31 24 18 16 13 9 7 5 4 5 7 10 12 11 11 10 10 10 11 12 10 10
51 41 37 35 30 23 20 12 9 7 4 5 8 12 13 14 16 17 17 17 16 15 16 17 18 17 12
43 39 36 27 25 14 10 8 5 7 12 16 17 20 24 29 32 31 28 23 20 18 18 19 20 22 18
41 33 27 18 14 10 6 5 12 15 16 17 18 22 27 32 42 39 35 36 33 28 26 25 29 30 22
33 23 18 15 8 5 10 12 17 20 26 24 28 30 31 33 45 48 56 56 55 50 44 42 41 33 31
21 20 15 6 8 11 14 17 20 28 38 29 28 26 32 43 59 72 78 78 62 64 62 54 43 37 40
22 10 6 12 14 17 18 21 23 24 21 13 22 32 34 60 75 92 83 96 90 75 69 53 42 39 42
6 9 15 21 22 24 25 27 19 14 15 12 20 31 36 38 43 55 61 70 76 80 70 56 43 46 43
14 17 22 27 27 27 42 42 31 25 28 26 28 29 31 32 37 53 57 56 52 49 40 38 38 38 38
19 24 26 28 28 41 62 68 74 68 59 56 63 74 79 85 92 59 32 40 30 36 51 59 59 38 26
26 30 31 33 30 56 68 72 80 87 64 52 53 52 60 67 72 77 80 94 94 84 89 84 77 71 72
30 32 35 38 33 63 69 73 72 60 73 88 94 89 80 64 68 88 84 100 71 76 66 86 58 47 47
33 35 41 37 33 66 76 79 74 70 70 85 96 100 100 99 68 64 92 100 92 77 45 63 100 94 70
41 43 45 36 30 55 78 88 93 80 71 82 96 94 97 100 100 68 50 84 81 91 96 98 88 82 61

GFSFLT2_500_rhum_030.txt.gz
RH
74 74 75 79 71 62 58 67 67 52 44 38 34 32 28 23 18 13 11 10 9 8 8 7 7 6 5
86 90 72 69 57 67 73 55 47 42 37 30 25 20 15 12 10 9 7 6 5 4 4 3 3 4 4
87 67 56 67 76 58 50 47 40 30 25 20 17 13 9 7 5 5 4 6 7 8 8 9 9 9 9
64 58 74 63 52 48 40 32 28 24 18 14 9 7 6 6 10 12 12 13 15 16 16 16 16 16 14
69 69 57 52 42 33 30 24 21 19 14 8 6 7 12 14 17 18 20 21 22 21 20 19 18 18 19
56 54 44 33 31 29 24 20 13 9 6 8 12 14 17 23 27 29 30 33 34 33 31 31 30 28 25
45 37 31 31 27 21 16 10 6 7 10 13 15 18 21 21 18 17 17 21 27 33 37 37 35 32 29
35 33 30 27 20 14 7 6 10 15 16 10 14 11 12 16 15 16 18 18 23 30 36 39 39 37 44
32 27 23 20 11 5 8 11 14 18 16 9 23 22 20 17 17 19 20 22 26 31 35 39 51 62 65
19 18 14 7 6 12 13 16 14 15 29 36 51 48 45 63 44 36 35 36 36 40 41 46 49 47 50
8 7 6 8 17 20 21 19 15 32 44 37 39 43 44 46 89 77 68 70 64 54 49 46 44 44 45
5 5 15 22 24 27 26 22 24 43 48 38 39 52 56 55 57 73 72 67 59 80 95 99 88 58 46
13 22 26 28 30 33 34 24 43 56 52 40 46 62 67 66 61 65 66 100 79 59 75 78 89 95 94
28 29 31 34 36 36 34 27 56 78 65 50 48 65 82 83 70 55 58 72 100 97 91 90 66 62 88
36 40 40 42 40 39 32 27 45 70 84 77 57 67 94 98 81 69 58 65 82 75 60 72 61 65 86
44 45 45 44 47 43 36 29 31 44 71 66 59 66 99 100 95 84 74 58 67 88 62 60 81 82 86
47 46 47 45 45 45 44 36 33 32 44 60 55 62 68 80 100 94 77 72 40 42 52 84 96 100 99

GFSFLT2_500_rhum_033.txt.gz
RH
100 99 100 97 84 90 88 86 86 61 63 54 42 41 34 24 20 17 14 11 9 8 7 6 6 7 8
98 98 99 90 98 98 96 79 65 70 51 45 36 26 22 17 14 9 6 5 4 4 4 5 5 5 4
96 98 99 99 98 99 69 73 62 52 42 28 26 21 15 11 7 5 4 4 4 5 6 7 8 9 10
99 100 100 100 84 60 68 55 50 39 31 27 23 18 12 6 4 4 5 7 7 7 9 11 14 16 18
99 100 87 75 73 55 48 34 34 32 25 27 18 11 6 5 7 8 7 6 6 8 8 9 11 13 16
94 91 80 61 44 31 27 29 25 29 21 17 9 6 9 14 14 10 7 13 14 18 16 14 16 16 20
75 63 38 27 22 22 19 14 12 14 8 7 6 12 16 18 28 27 29 29 32 36 38 21 21 26 27
24 20 15 12 9 8 7 7 8 7 6 8 14 14 17 54 50 42 34 32 32 36 42 30 20 28 36
8 6 5 5 5 5 6 5 5 13 16 13 17 14 47 64 51 42 39 40 43 47 48 53 53 26 27
4 4 5 6 5 4 5 10 16 18 20 16 18 30 45 69 63 62 66 63 64 58 59 58 62 61 56
6 6 4 3 4 11 16 16 22 24 22 16 21 48 46 36 70 70 71 74 72 72 65 68 67 62 89
3 3 5 12 18 22 24 28 30 28 23 17 38 48 47 39 48 67 73 72 69 74 80 76 71 60 92
6 13 18 23 27 34 34 38 39 32 22 24 45 50 50 36 41 54 59 78 79 82 85 98 77 73 64
17 24 29 33 34 39 43 42 45 45 30 25 40 57 66 58 52 71 76 70 76 74 70 94 93 73 49
30 35 40 43 43 45 43 44 42 42 42 29 27 40 45 52 62 79 86 90 82 76 55 62 73 75 68
35 42 48 50 50 47 44 43 43 45 38 25 23 26 28 32 75 90 86 94 98 95 79 66 99 83 70
41 45 48 50 51 52 50 46 47 46 46 32 27 24 29 38 82 70 70 89 93 100 81 50 46 59 58

GFSFLT2_500_rhum_036.txt.gz
RH
98 99 91 95 99 98 97 97 99 100 94 76 82 82 69 50 43 39 38 29 19 17 15 13 12 9 8
99 95 98 97 98 98 98 99 98 96 91 91 71 64 61 49 42 30 22 19 18 16 12 10 8 6 5
98 99 88 88 96 98 99 99 99 99 85 78 67 53 40 27 24 23 22 18 14 9 6 5 4 4 6
88 94 89 99 99 99 99 100 98 97 82 56 38 27 26 22 19 15 9 6 5 5 5 6 6 8 11
100 99 96 98 100 100 98 85 50 42 28 25 20 13 12 10 8 6 6 5 6 7 7 13 27 27 26
92 100 100 98 88 58 31 16 10 10 7 7 7 7 7 6 6 5 8 11 9 8 25 30 29 32 33
90 56 37 20 16 12 8 6 5 5 5 5 6 6 5 9 17 18 16 12 11 30 30 31 36 40 45
23 18 14 11 7 5 4 4 5 6 6 5 4 8 18 26 25 20 15 17 33 33 37 42 42 48 54
11 6 4 4 4 4 5 6 5 4 4 9 19 18 24 29 24 27 32 42 38 38 47 53 56 46 49
6 5 4 4 5 6 5 3 6 15 15 21 25 25 26 29 44 65 69 60 47 45 54 64 74 60 55
4 4 6 6 5 5 9 14 18 20 22 23 30 28 23 23 47 66 73 69 52 49 56 70 74 70 56
7 7 7 7 11 13 16 22 25 27 31 27 26 25 22 28 47 53 63 62 49 60 75 78 84 78 54
9 9 10 13 16 20 25 29 33 32 33 28 26 27 21 24 40 41 50 52 60 74 83 86 92 81 52
18 22 25 26 28 32 36 38 44 45 39 31 29 29 24 22 28 32 37 52 75 78 90 89 91 86 62
29 33 33 33 36 41 46 50 52 55 53 38 32 35 37 28 24 26 38 60 79 92 94 100 84 60 62
36 39 42 44 45 47 49 50 53 51 45 40 37 38 39 42 27 25 28 62 91 91 91 97 100 85 88
38 42 48 52 52 52 55 56 55 50 48 38 34 34 34 31 30 25 46 76 87 95 94 95 100 100 97

GFSFLT2_500_rhum_039.txt.gz
RH
98 97 82 70 98 92 78 83 96 92 90 86 88 95 92 93 89 82 78 76 77 65 50 42 33 26 21
100 88 58 80 91 80 70 100 82 85 75 74 88 90 100 98 97 100 86 66 53 42 34 28 23 21 19
99 83 86 54 52 70 89 92 88 80 90 93 98 100 100 100 94 72 58 29 19 16 15 11 9 7 6
69 59 99 81 62 84 99 99 97 98 97 90 87 76 52 31 17 12 8 7 6 6 5 5 5 5 5
93 97 97 62 70 96 100 100 94 70 49 30 18 12 9 6 5 4 4 5 5 6 6 5 6 9 11
76 96 100 100 100 96 77 30 17 11 10 7 5 4 4 4 5 5 6 5 4 5 7 11 12 12 13
100 96 85 64 35 19 11 8 7 6 6 4 4 5 5 5 5 4 4 7 10 12 13 13 13 19 35
46 26 18 14 10 9 7 5 4 4 4 6 6 5 4 6 11 16 18 20 20 17 14 16 31 38 36
20 15 13 10 7 5 4 4 5 6 6 5 6 9 16 24 28 31 28 21 15 17 31 40 42 38 40
16 14 9 6 5 5 7 8 8 8 8 12 15 15 21 38 39 35 27 20 24 43 49 46 41 38 39
10 8 5 4 7 10 10 10 12 14 14 15 26 26 27 29 40 42 31 26 29 41 52 56 50 45 53
7 5 7 11 14 17 20 22 23 24 24 24 26 28 32 32 32 40 28 24 27 34 39 44 58 68 68
6 9 14 19 22 26 27 28 30 30 31 28 27 32 32 29 29 37 29 36 28 27 35 54 72 72 81
10 17 22 22 24 29 33 34 36 37 38 37 34 34 35 32 32 35 36 27 24 26 39 72 84 79 75
17 24 24 26 30 33 37 41 43 45 47 43 40 39 41 38 32 36 34 32 24 30 64 93 100 85 77
26 28 31 34 37 38 41 44 47 48 47 50 50 43 43 50 36 41 47 40 23 23 66 88 100 100 88
31 36 42 46 48 49 49 48 48 51 57 55 51 41 37 39 45 46 46 36 19 22 60 88 94 100 95

GFSFLT2_500_rhum_042.txt.gz
RH
98 97 98 97 97 96 90 84 89 60 57 65 56 54 60 77 80 76 69 60 59 73 71 75 78 71 60
91 98 98 98 84 99 100 95 88 92 98 60 47 39 63 84 82 86 84 89 81 83 92 96 92 92 85
90 82 76 96 88 100 73 62 72 68 91 63 49 56 68 86 98 96 92 81 68 65 58 44 26 13 9
75 66 54 45 87 78 65 63 67 94 96 90 89 89 73 60 37 28 16 13 11 8 7 6 5 4 4
83 91 68 92 99 97 100 98 96 79 76 52 35 16 10 8 8 8 7 6 6 5 4 4 4 4 5
100 80 68 100 100 99 90 64 44 22 16 9 10 8 6 6 5 4 4 4 4 4 5 5 4 4 6
97 97 100 97 65 34 30 19 16 14 11 7 8 6 6 5 5 6 6 5 5 4 5 7 9 12 14
93 78 52 45 30 21 18 12 9 8 6 4 4 6 8 8 8 8 8 8 9 10 13 18 17 15 14
21 19 19 19 20 18 12 8 5 4 5 8 11 12 12 12 14 15 16 17 18 21 21 16 14 19 38
20 19 20 21 18 11 6 5 7 12 14 18 19 19 22 28 30 27 28 26 28 25 20 18 21 31 37
26 23 21 15 10 7 6 10 16 19 19 22 26 24 24 29 52 43 39 40 34 30 27 22 24 30 37
22 20 18 15 9 8 13 20 22 23 24 26 32 32 35 35 40 51 46 41 36 34 33 29 25 26 31
24 19 14 10 10 16 22 23 27 30 32 33 36 39 36 36 38 46 40 44 35 32 32 27 24 26 33
17 11 9 12 17 25 25 28 32 34 36 36 39 38 37 37 39 40 39 30 31 31 30 28 25 26 51
9 11 17 18 27 31 31 33 37 40 44 44 44 44 47 47 42 39 39 34 26 25 27 28 23 24 66
15 19 22 25 32 38 43 46 47 51 53 54 54 54 51 53 52 44 49 31 29 27 26 29 24 26 67
20 23 27 30 38 46 52 55 55 56 68 69 58 48 50 58 62 58 50 40 26 24 26 30 22 39 74

GFSFLT2_500_rhum_045.txt.gz
RH
69 71 74 66 98 98 96 100 99 96 98 99 96 90 84 77 68 93 85 66 43 34 38 62 60 61 55
89 91 87 76 79 100 100 100 93 96 88 93 98 76 54 69 62 70 81 76 61 48 44 47 60 58 72
85 94 99 100 100 95 90 97 92 90 76 88 91 68 69 57 79 90 81 78 72 68 66 65 65 65 57
89 100 97 94 91 92 99 88 95 98 98 97 94 86 78 73 59 33 21 14 12 10 10 10 9 9 8
100 99 81 66 76 99 100 98 100 99 95 66 32 28 24 16 13 12 10 10 10 10 10 9 8 7 6
93 94 77 79 87 89 100 99 35 50 64 35 38 18 12 9 8 7 6 6 5 4 4 4 4 5 5
99 100 100 99 100 96 76 53 38 23 20 18 15 11 7 5 5 5 5 5 6 7 8 8 8 7 6
92 94 92 80 58 33 24 19 20 21 20 14 8 6 6 6 7 10 13 15 15 15 13 12 11 12 14
28 28 28 28 27 24 21 20 20 20 17 13 8 8 12 15 17 18 20 19 19 19 20 20 21 21 22
33 31 30 30 31 26 21 20 21 18 11 8 10 16 20 21 22 24 24 22 22 22 24 25 24 24 21
38 36 34 29 24 20 18 17 12 9 9 14 20 20 22 33 36 34 32 30 30 30 30 29 29 24 23
34 30 24 19 18 17 14 11 12 14 20 23 25 24 27 34 47 46 40 42 44 42 41 40 34 28 27
15 8 7 6 7 9 12 16 18 25 29 28 28 30 32 35 41 53 43 47 47 46 42 41 34 30 30
12 9 8 7 8 13 18 21 28 34 37 38 39 38 36 33 36 51 55 49 58 46 37 38 36 32 31
13 8 8 9 11 16 21 26 33 42 51 52 51 47 43 49 48 41 54 61 54 50 44 33 34 33 30
11 8 9 10 14 20 26 30 35 44 52 61 64 57 46 47 52 50 51 50 60 54 47 33 32 33 28
11 10 12 13 16 23 31 39 45 52 63 68 67 59 44 40 55 72 50 55 61 57 47 40 29 32 27

GFSFLT2_500_rhum_048.txt.gz
RH
67 96 84 97 87 91 98 100 98 98 99 100 98 98 97 95 98 96 95 96 64 59 63 60 69 72 62
64 100 100 97 100 96 99 99 100 93 99 98 93 95 91 91 92 92 90 84 73 50 49 56 62 67 72
100 89 100 100 100 100 100 100 97 100 98 92 95 85 88 89 95 92 88 83 79 71 63 66 70 65 54
85 88 82 97 99 99 100 95 97 87 82 100 87 90 96 94 95 86 66 69 54 46 43 41 33 28 24
64 69 65 71 87 94 99 94 72 72 86 86 100 76 54 63 67 69 48 30 21 18 16 13 12 12 11
70 73 66 78 85 92 91 92 90 86 89 85 68 43 30 21 22 20 19 16 11 9 9 9 7 6 6
82 82 77 78 78 80 96 90 75 64 55 19 28 16 18 20 20 19 18 14 9 7 6 5 5 6 8
25 25 27 30 31 28 27 28 28 27 25 20 23 25 21 20 20 13 8 7 7 9 12 15 16 16 16
34 34 35 35 35 34 33 34 34 34 31 26 22 19 18 16 12 9 9 13 16 17 18 18 19 19 20
35 33 34 34 33 31 28 21 13 8 8 11 12 11 10 10 12 17 20 20 19 21 20 22 22 23 24
29 30 30 25 19 14 10 8 8 8 6 8 11 12 15 21 24 24 22 22 22 23 26 27 27 26 28
22 25 24 22 16 14 13 9 9 8 8 11 16 18 22 31 34 31 28 30 26 26 25 27 31 30 28
19 22 22 23 16 14 11 9 9 10 13 15 19 22 30 36 41 49 48 42 37 34 32 31 39 40 40
24 25 26 24 21 16 10 9 12 14 17 19 24 28 36 45 48 60 63 58 68 60 43 39 50 53 49
29 30 31 26 21 13 11 13 14 18 22 23 30 36 43 52 63 73 76 76 70 72 66 53 54 63 59
39 43 34 25 14 12 14 15 16 21 30 39 48 51 53 61 66 72 77 74 72 56 53 44 48 66 63
49 47 32 20 12 15 16 16 18 21 30 46 63 65 66 71 88 97 82 82 63 56 53 41 35 62 63

GFSFLT2_500_rhum_051.txt.gz
RH
47 58 76 92 59 74 96 98 99 83 98 98 100 99 97 99 96 96 99 96 97 97 97 96 97 95 92
31 40 89 84 74 98 100 100 92 86 98 92 99 100 100 100 98 98 91 91 91 90 77 77 86 94 94
32 57 70 73 60 51 73 100 96 100 98 99 98 99 98 94 89 83 77 71 72 90 89 89 91 86 80
46 43 44 43 56 66 85 82 89 98 98 99 100 96 93 91 87 85 82 87 73 79 88 85 76 80 78
45 51 58 59 55 46 58 67 79 86 81 99 100 99 92 91 94 90 85 70 65 64 46 28 25 24 27
19 20 23 36 67 77 80 83 85 78 86 99 99 85 62 34 17 12 12 13 14 17 20 22 22 22 21
24 24 25 26 28 28 28 28 29 29 29 29 29 29 26 23 21 21 22 20 19 20 20 19 16 12 10
23 23 24 24 24 24 22 25 27 26 27 36 34 32 28 23 18 15 15 17 18 18 15 12 10 9 8
24 24 22 19 18 19 18 19 20 17 16 15 13 12 10 10 8 7 7 9 11 11 11 11 12 15 16
27 24 18 16 16 16 17 18 20 21 16 14 14 12 11 9 8 8 8 9 11 13 18 21 20 19 21
27 21 17 19 19 20 21 23 23 21 18 16 14 11 9 9 10 12 13 14 17 25 26 24 22 21 24
27 21 21 22 24 25 27 30 28 24 21 17 11 10 10 14 19 20 19 21 26 32 31 30 28 25 24
30 26 25 29 29 32 38 39 30 24 18 12 11 13 15 21 24 31 34 31 35 42 43 43 41 38 38
32 29 33 38 39 40 42 32 28 19 13 14 15 15 15 17 23 41 53 52 65 61 56 56 55 49 39
33 38 46 49 41 47 40 28 14 13 15 16 16 17 18 21 30 44 59 80 86 89 86 78 75 69 54
42 47 58 49 46 47 34 16 12 14 16 17 19 18 19 24 30 42 66 78 99 99 98 94 91 88 68
51 58 70 49 52 45 30 12 12 13 16 20 20 18 20 22 30 48 49 86 89 93 100 100 90 95 88

GFSFLT2_500_rhum_054.txt.gz
RH
22 23 21 28 20 30 37 48 86 97 100 84 86 97 96 100 100 98 100 100 100 100 94 98 100 100 98
27 14 14 26 35 33 39 54 60 89 98 90 87 66 86 90 85 86 98 99 100 100 98 96 77 90 99
10 11 12 13 18 35 46 40 50 67 82 90 86 84 100 100 100 98 98 98 94 96 97 96 83 76 82
13 13 13 14 15 16 26 53 61 53 46 74 87 88 85 88 89 100 96 95 97 96 99 96 88 81 74
16 16 16 16 16 18 23 24 29 37 55 74 73 75 72 84 94 96 100 100 100 96 92 96 89 63 58
21 20 20 19 18 18 16 16 18 26 30 32 34 32 30 30 31 25 19 15 13 12 15 17 20 20 18
24 23 21 20 21 19 16 16 15 15 15 16 14 19 21 26 29 32 34 34 33 33 32 30 28 26 24
26 26 26 25 24 20 18 18 18 17 17 18 18 17 17 18 16 12 12 12 10 10 10 9 8 10 13
32 31 29 26 25 22 19 20 20 21 21 22 21 20 22 21 19 16 16 14 13 10 9 9 8 8 10
37 34 32 29 27 25 23 23 25 26 26 23 23 28 29 26 23 20 16 12 11 10 10 10 10 13 14
38 37 35 33 31 28 26 29 32 34 23 26 33 31 26 24 22 18 14 12 12 13 15 16 17 17 21
43 40 37 36 33 30 34 39 42 34 26 36 31 17 11 10 13 14 14 15 15 18 19 20 23 24 30
45 42 41 39 36 40 43 43 44 25 33 30 22 13 10 12 15 17 16 17 16 18 21 24 25 28 37
45 47 47 46 45 47 47 47 40 28 36 30 22 12 11 13 16 19 19 19 26 26 24 26 32 40 48
49 51 53 53 53 49 46 41 28 41 37 31 21 12 12 14 20 20 20 23 22 27 35 44 52 56 62
59 56 57 56 55 55 40 24 35 47 44 36 18 12 13 15 19 23 23 21 22 22 26 36 67 89 84
75 66 63 64 68 55 26 25 53 55 50 32 14 12 15 15 23 29 30 29 26 30 29 26 34 93 100

GFSFLT2_500_rhum_057.txt.gz
RH
20 28 30 22 9 8 8 9 12 24 31 75 95 99 70 61 80 93 89 99 100 99 98 100 100 100 99
23 32 23 11 10 10 10 10 10 12 26 34 69 71 67 64 55 64 71 78 85 96 97 100 100 100 100
31 16 12 13 12 12 14 13 12 11 14 28 34 50 75 82 74 68 76 83 81 86 100 97 98 98 97
15 13 16 15 14 17 16 15 14 13 12 13 16 26 44 65 94 99 94 92 91 98 99 100 100 98 93
15 18 20 20 19 20 19 20 18 16 15 14 13 12 13 14 17 26 38 53 65 71 85 95 99 100 100
22 24 24 23 23 23 23 23 20 18 17 17 16 15 16 17 17 17 16 15 18 25 30 26 21 40 75
27 27 27 27 26 26 25 22 21 20 19 20 18 18 18 19 19 18 18 19 20 18 19 23 29 33 32
33 36 38 35 33 31 29 26 24 23 22 22 23 21 21 20 16 15 17 25 24 22 19 16 13 12 12
47 48 46 42 38 36 34 30 27 26 25 26 28 27 24 16 14 18 26 29 28 27 26 22 19 16 14
55 51 48 44 43 40 35 32 30 30 31 34 31 29 19 14 22 24 22 15 11 9 9 12 18 16 12
56 53 49 47 43 37 34 34 34 35 39 38 37 30 17 26 27 23 18 12 10 8 10 12 14 15 15
66 61 55 50 41 39 38 39 40 42 42 44 41 26 20 31 30 27 19 11 11 12 12 14 16 16 18
87 77 64 51 49 47 46 49 49 49 50 52 46 23 24 35 38 31 19 12 11 11 13 17 17 17 20
100 94 79 68 67 63 62 61 62 61 62 58 34 21 36 44 45 27 15 13 13 12 15 19 18 18 20
96 95 94 87 79 73 68 65 68 71 64 44 25 27 43 56 41 22 12 13 14 16 22 24 24 20 18
97 99 100 98 97 86 76 75 78 67 37 30 33 35 44 52 30 14 13 13 15 20 25 26 29 29 26
100 100 100 97 94 94 90 89 72 36 36 37 40 48 57 34 15 14 12 13 19 22 27 29 30 33 33

GFSFLT2_500_rhum_060.txt.gz
RH
27 20 18 20 26 30 12 11 10 12 11 10 9 9 21 45 75 86 77 64 74 92 90 86 97 95 89
23 19 20 23 31 16 13 12 12 14 13 12 11 10 10 20 43 66 72 79 67 61 55 71 94 89 93
21 20 19 28 13 14 17 15 16 16 15 14 13 12 12 11 13 22 48 77 85 94 100 97 91 100 100
21 18 16 14 15 19 20 19 19 19 20 18 14 14 13 12 12 11 12 15 27 46 60 70 85 100 100
18 17 18 21 23 24 23 22 23 23 23 20 17 17 16 14 14 14 14 15 15 15 14 14 19 40 63
21 24 28 28 27 27 29 29 30 29 28 24 22 21 19 19 16 15 16 15 14 13 13 13 14 15 17
28 31 32 32 36 39 40 39 36 35 33 31 26 24 22 21 21 19 18 16 14 12 11 11 12 15 16
34 35 39 44 49 50 47 45 41 40 38 32 28 26 26 27 25 23 22 20 17 12 10 11 14 20 24
39 42 49 56 58 52 48 45 44 41 34 32 31 30 31 31 30 30 31 29 20 12 14 16 17 17 13
52 54 63 69 63 58 56 53 48 39 36 35 34 35 36 38 39 43 43 37 23 17 19 20 19 16 12
77 78 80 80 80 78 77 74 54 48 46 45 47 48 49 50 52 52 51 35 21 24 26 27 26 16 10
80 81 84 88 90 90 88 81 69 70 65 61 57 54 54 57 59 55 42 26 29 36 36 34 27 12 11
75 80 84 91 96 97 94 89 84 82 81 75 70 67 65 64 57 36 28 30 36 40 43 38 18 11 12
76 78 83 87 93 96 95 93 94 88 85 83 82 79 75 59 34 37 38 45 53 50 47 31 12 12 14
74 79 83 88 94 93 91 92 92 91 88 83 73 67 43 33 35 38 51 56 52 43 29 14 12 11 14
85 85 85 88 90 90 95 98 100 96 82 60 48 34 31 32 36 53 60 51 35 21 15 14 14 13 17
86 75 73 85 90 92 97 99 84 50 38 31 32 29 28 29 64 68 46 24 16 15 14 14 15 18 22

GFSFLT2_500_rhum_063.txt.gz
RH
31 37 38 34 25 21 20 24 29 12 12 11 13 13 12 11 10 9 10 16 50 65 75 100 95 81 77
36 36 32 26 21 20 24 21 13 14 14 13 16 16 15 13 11 10 10 11 19 52 82 81 78 73 76
40 35 26 20 18 17 16 13 16 17 17 16 19 19 19 15 13 12 11 11 11 12 14 30 60 65 72
32 27 20 18 16 15 16 19 21 22 21 21 22 23 22 19 17 17 15 13 12 12 12 13 12 11 12
23 21 19 18 20 22 24 26 27 28 30 31 30 29 28 26 24 22 19 18 16 15 14 13 13 12 12
23 24 24 24 26 28 29 31 37 41 41 40 38 36 34 33 30 25 22 19 18 16 15 14 14 13 12
30 30 32 30 30 32 35 41 48 50 47 44 41 40 38 34 29 26 25 24 22 20 19 18 17 16 15
37 43 41 38 38 41 47 53 58 56 50 47 47 44 39 34 32 32 30 29 27 28 30 29 27 24 22
34 38 49 53 52 53 60 68 69 65 64 64 62 52 43 40 37 37 38 39 42 40 38 35 34 33 32
40 36 43 62 73 76 78 81 85 89 88 84 74 58 62 61 60 59 54 50 51 50 46 42 41 42 37
44 48 50 57 65 71 75 78 85 92 93 93 88 82 81 79 79 74 71 69 67 61 56 55 49 33 25
49 55 60 62 64 66 68 70 76 84 93 92 92 90 88 88 84 83 76 68 57 53 48 34 32 33 36
51 55 66 71 73 71 68 72 76 82 87 89 90 92 94 94 89 72 41 35 34 30 27 28 31 37 46
59 67 76 76 75 76 77 78 79 81 89 89 91 92 89 66 29 23 22 28 30 27 25 27 36 46 51
73 82 85 86 82 78 74 68 71 79 84 85 78 52 22 19 22 24 26 26 27 28 31 48 58 54 43
86 91 91 86 87 87 81 80 82 82 63 27 14 17 21 25 24 26 26 26 27 44 68 63 32 19 17
93 90 87 86 88 87 86 86 61 19 15 21 22 26 25 32 35 28 25 27 37 73 61 21 17 17 16

GFSFLT2_500_rhum_066.txt.gz
RH
13 15 14 24 32 33 31 21 18 17 26 22 14 14 13 15 15 16 14 11 10 11 9 11 47 77 95
19 16 21 23 31 29 22 18 16 17 14 13 17 17 17 18 18 18 17 13 14 15 12 10 8 9 18
17 24 25 28 27 22 18 16 15 14 15 17 20 22 21 22 22 23 21 19 19 20 16 14 13 12 12
23 25 24 22 21 19 18 18 20 21 23 24 25 27 30 31 30 28 28 28 27 24 20 18 16 15 14
23 25 23 23 23 23 23 22 26 27 27 30 35 42 42 40 38 36 35 34 32 26 23 19 18 17 16
25 25 27 28 28 27 27 28 33 31 31 40 48 49 47 44 41 40 39 35 31 27 24 23 22 20 18
32 32 33 30 30 32 35 35 37 41 43 46 51 56 52 48 49 48 44 38 33 31 29 28 27 26 26
39 34 35 33 31 28 31 40 50 51 58 66 69 68 68 69 72 67 54 45 43 40 39 40 40 39 37
41 38 37 35 34 34 34 39 51 69 74 78 82 84 87 85 82 73 62 67 68 67 65 63 58 55 53
47 48 46 41 38 40 43 49 54 61 65 72 77 82 89 91 88 88 85 81 79 76 72 69 66 64 59
55 57 55 51 45 46 53 57 64 72 70 68 69 79 89 92 87 90 86 83 83 79 71 54 28 16 20
66 64 63 59 55 53 57 60 65 67 70 74 77 77 79 85 87 86 75 68 52 23 15 15 16 20 24
76 72 72 69 68 64 66 73 75 71 73 76 73 70 70 74 81 68 24 15 19 21 21 19 22 26 26
84 86 82 76 69 77 79 82 81 76 80 78 76 75 75 64 22 17 21 25 26 27 25 25 26 25 26
94 90 83 80 83 82 82 84 88 84 83 80 79 70 30 15 22 23 27 30 32 30 22 21 21 23 27
90 86 86 86 85 82 80 83 88 90 91 89 66 15 21 25 27 30 31 33 33 29 23 23 26 39 61
92 88 89 87 84 86 89 92 91 91 91 72 13 23 28 31 30 31 33 33 32 28 25 25 29 69 61

GFSFLT2_500_rhum_069.txt.gz
RH
26 20 16 14 20 11 16 21 28 23 17 15 17 17 15 16 15 14 16 17 19 17 14 16 15 11 10
23 20 15 28 16 15 20 24 22 18 15 14 14 14 17 19 19 19 19 21 22 21 19 20 21 17 13
29 20 18 18 17 20 21 21 20 18 17 16 17 19 22 24 23 23 26 28 28 27 27 28 27 23 19
32 28 20 20 22 22 21 21 21 21 21 21 21 23 26 28 34 38 38 37 35 34 33 32 30 26 23
40 33 25 26 26 25 23 25 24 24 26 26 26 27 30 40 48 49 46 43 41 39 38 36 32 28 26
43 35 29 29 31 30 28 26 24 23 31 33 32 32 38 44 51 54 52 47 45 46 44 39 34 31 29
57 38 31 38 38 36 31 29 27 28 32 37 38 40 43 51 64 66 62 60 62 66 59 46 40 38 36
42 38 42 43 41 41 34 32 33 32 33 34 36 47 56 69 78 79 82 83 83 80 70 57 56 60 58
43 50 53 51 52 51 47 42 39 41 44 45 49 55 58 60 66 72 76 81 85 86 84 80 75 70 65
52 59 61 60 61 62 59 55 49 47 47 50 55 61 65 65 67 70 68 69 70 70 71 71 68 63 60
61 64 68 82 76 70 66 64 62 59 54 57 60 64 65 67 70 71 65 67 71 68 62 57 26 14 16
64 72 90 99 88 87 75 73 74 67 67 69 73 77 78 78 78 71 66 66 69 65 30 15 15 17 19
82 91 99 100 100 92 82 78 73 74 76 74 76 78 80 81 84 75 72 69 60 18 17 20 24 28 32
100 99 100 100 99 92 81 78 76 75 74 74 77 83 82 80 85 85 78 28 16 18 22 28 30 33 35
100 100 100 98 95 90 78 78 80 75 72 74 80 81 82 90 98 83 17 21 24 28 30 31 32 33 34
100 100 100 98 99 93 80 78 82 80 78 75 75 75 77 91 82 18 22 27 29 30 30 30 29 30 30
100 100 100 100 100 99 88 89 85 81 81 83 82 75 88 87 15 23 28 30 30 26 21 26 38 35 33

GFSFLT2_500_rhum_072.txt.gz
RH
62 59 73 63 39 25 18 25 18 18 19 21 21 16 14 13 13 14 16 17 17 18 19 20 18 17 19
63 66 80 62 34 26 24 19 22 21 22 20 18 16 15 14 13 14 18 19 21 22 24 25 23 22 23
89 85 79 41 35 30 23 26 24 22 21 20 19 20 20 18 19 20 22 23 24 29 31 31 30 28 28
90 76 61 47 40 32 32 28 25 23 22 22 23 22 21 21 22 24 26 32 40 44 43 40 38 35 34
51 58 65 54 49 36 38 30 28 27 28 26 26 27 25 26 28 28 30 36 46 50 49 46 43 41 41
86 96 79 64 46 58 36 34 33 29 31 28 28 28 29 30 35 35 36 41 48 55 57 52 49 50 48
96 70 91 59 80 44 41 46 42 36 33 32 32 30 31 32 36 37 45 56 67 72 72 71 72 74 73
97 97 92 93 53 49 53 54 45 43 41 38 39 38 38 40 41 44 49 53 60 66 73 79 84 85 83
90 100 98 67 59 63 65 60 58 58 55 51 47 45 45 46 50 53 57 60 64 65 66 71 75 76 76
93 100 88 72 68 68 70 74 91 77 68 68 63 60 56 56 58 59 59 58 60 62 64 64 66 68 66
100 100 93 76 76 83 84 91 98 96 86 77 73 69 64 63 68 68 66 66 65 66 65 64 63 61 59
100 100 95 84 84 89 95 100 100 99 91 84 76 73 70 70 71 72 73 73 71 70 71 69 66 66 64
100 97 96 97 95 95 98 100 99 94 88 78 74 75 73 72 74 69 72 73 75 70 72 74 74 34 18
100 100 100 100 100 100 100 100 98 92 81 75 75 74 72 73 84 82 75 74 68 70 85 83 25 19 24
100 100 100 100 100 100 100 100 95 85 85 79 74 70 70 76 87 85 82 77 68 71 78 22 21 26 29
98 99 100 100 100 100 100 100 98 95 90 83 80 77 74 82 88 98 95 83 81 72 20 22 28 30 29
97 95 100 100 100 100 100 100 100 99 92 92 90 82 85 94 94 92 90 85 55 22 28 29 29 23 36

GFSFLT2_500_rhum_075.txt.gz
RH
78 74 67 72 77 77 75 81 62 35 27 24 20 21 24 19 16 14 13 12 12 13 14 14 16 19 21
74 73 77 69 80 90 95 90 68 41 25 23 24 22 20 17 16 16 14 14 14 16 18 18 18 20 24
75 74 68 72 83 99 98 96 63 37 30 48 25 23 20 19 20 20 20 19 20 20 22 24 28 32 32
73 68 66 77 77 86 83 79 53 41 56 34 26 24 24 24 24 24 24 24 24 25 30 37 44 45 43
65 69 56 60 85 83 88 87 78 57 68 34 32 32 32 30 29 28 29 29 30 30 34 41 48 52 52
75 70 68 68 81 94 99 92 68 88 45 43 41 37 35 32 30 30 32 33 35 37 42 46 48 56 60
94 90 82 97 100 87 82 83 96 60 51 54 46 41 37 34 34 34 34 34 36 37 40 49 57 66 73
100 98 100 100 98 96 96 99 79 58 63 61 56 50 45 41 40 41 42 44 46 48 50 52 56 62 69
100 100 100 100 96 97 98 86 73 81 78 75 72 67 61 55 51 50 50 50 53 55 55 54 58 63 67
100 100 100 98 99 100 100 92 83 95 87 84 89 85 78 72 66 65 62 60 60 62 63 63 63 63 68
100 100 99 99 100 99 100 98 97 100 100 99 100 100 98 93 78 70 68 64 65 68 69 73 75 73 74
100 100 100 100 99 99 100 99 98 99 100 99 99 100 97 87 77 69 65 63 65 65 68 76 77 74 75
100 100 100 100 100 100 100 100 100 100 100 100 100 100 98 84 71 65 63 64 67 66 72 77 76 78 79
100 100 100 100 100 100 100 100 100 100 100 100 100 100 97 84 78 70 57 58 60 62 75 80 78 80 83
99 98 98 97 94 98 100 100 100 100 100 100 100 100 100 99 99 95 82 73 61 63 70 86 90 83 80
96 93 90 93 96 100 93 99 97 94 99 100 100 100 100 100 100 100 100 95 83 84 80 81 91 81 83
100 92 94 97 97 96 95 99 100 98 97 100 100 100 100 100 100 100 100 97 98 91 83 79 99 96 32

GFSFLT2_500_rhum_078.txt.gz
RH
84 93 100 95 87 87 83 76 88 90 93 90 88 81 49 24 23 23 19 15 15 14 12 13 14 14 14
96 97 100 92 91 78 74 77 89 94 96 98 98 74 35 27 25 22 17 15 14 14 14 15 17 17 17
72 84 90 85 83 92 95 93 95 89 94 97 92 58 34 56 25 21 18 19 20 20 20 20 22 22 22
54 69 74 70 70 66 64 61 76 93 100 100 87 42 83 38 25 23 24 24 24 23 24 24 25 27 31
55 57 57 79 77 76 70 61 77 100 100 98 96 91 69 34 32 31 30 31 30 30 30 29 30 32 34
71 75 72 85 95 97 83 87 97 88 96 99 97 91 52 51 45 42 41 39 38 38 36 35 36 40 40
82 92 88 89 94 100 100 100 100 100 100 97 100 72 66 58 50 45 45 43 41 40 40 38 39 44 47
93 100 99 89 100 100 100 100 100 100 100 100 91 81 78 67 60 55 52 48 47 47 47 47 50 52 54
86 82 91 99 100 100 100 100 100 100 100 100 100 100 94 86 79 73 68 64 60 53 52 53 55 56 58
100 98 99 100 100 100 100 100 100 100 100 100 100 100 99 100 98 98 98 99 93 72 65 62 61 61 64
98 85 99 100 100 100 100 100 100 100 100 100 100 100 100 100 100 100 100 100 97 86 69 61 59 60 64
90 94 90 99 100 100 99 100 100 100 100 100 100 100 100 100 100 98 93 89 82 70 63 61 62 64 64
100 100 100 100 98 96 100 100 100 100 98 96 89 89 95 95 100 100 98 92 84 72 65 64 62 62 64
100 100 99 99 100 98 90 88 96 97 95 95 94 93 97 96 100 99 99 96 92 86 78 73 66 66 70
88 94 96 97 97 98 98 96 92 87 93 96 97 97 96 96 99 99 96 98 90 90 97 98 96 90 87
92 100 100 100 100 100 100 100 100 96 91 93 97 97 95 98 99 100 100 99 91 93 93 98 100 100 100
100 98 96 97 94 90 93 93 86 70 68 73 82 82 86 97 98 100 100 96 98 97 92 96 100 100 97

GFSFLT2_500_rhum_081.txt.gz
RH
81 77 81 92 100 100 100 100 96 93 95 94 95 91 91 96 92 91 46 28 26 20 16 19 16 12 13
32 34 48 65 76 83 84 90 94 97 98 98 96 96 94 98 98 84 42 29 22 17 18 18 15 16 16
24 28 29 30 33 38 56 67 69 69 68 78 90 98 100 100 94 81 33 34 21 18 16 15 15 17 18
31 33 38 40 46 48 48 48 46 66 76 67 82 98 100 98 98 43 92 32 22 21 20 21 22 22 24
38 46 37 44 52 64 59 57 84 88 97 82 96 99 97 97 58 98 63 30 28 29 29 28 28 28 28
48 49 55 46 59 60 73 76 91 100 100 100 100 100 100 100 98 67 48 42 40 39 36 35 34 34 33
59 55 60 78 78 87 100 97 93 100 100 100 100 100 100 100 93 89 77 65 61 55 50 46 42 42 41
65 66 69 83 96 83 91 100 96 100 100 100 100 97 100 100 100 99 95 70 60 56 54 54 48 46 43
71 70 78 83 96 86 91 100 87 100 100 100 97 100 100 98 98 98 97 84 72 63 59 57 56 52 52
73 80 87 89 92 83 91 100 100 100 100 100 100 100 100 99 100 99 98 96 96 91 82 86 93 89 71
90 81 88 83 79 76 77 88 100 100 100 100 100 100 100 100 100 100 100 100 100 100 100 100 100 99 96
81 75 78 72 85 92 92 99 100 100 100 100 100 98 95 99 100 100 98 96 99 100 100 99 97 91 82
78 79 76 82 93 97 100 100 100 100 100 100 99 98 96 92 92 90 96 100 100 100 100 100 98 94 89
82 91 95 90 92 95 92 89 92 97 100 97 95 94 92 92 94 91 93 93 90 92 100 100 100 99 100
97 97 95 90 91 91 92 95 99 100 100 100 98 95 88 86 89 88 88 86 87 98 100 100 100 100 100
97 97 98 96 93 95 94 95 94 94 94 91 85 82 75 66 73 76 79 73 78 89 96 100 100 98 100
98 91 88 95 100 97 96 94 86 84 80 71 42 24 21 20 19 21 19 18 28 35 44 50 66 60 49

GFSFLT2_500_rhum_084.txt.gz
RH
13 14 14 14 16 22 24 35 44 60 73 75 70 81 92 93 97 98 98 98 95 82 78 30 24 18 21
12 13 14 14 14 16 19 23 28 33 34 60 78 80 77 94 98 100 100 98 99 75 35 34 25 27 26
25 26 27 26 25 25 27 31 40 39 44 46 54 58 67 91 100 100 100 100 92 71 43 67 32 33 20
20 24 28 30 28 28 35 37 42 47 53 56 57 84 87 82 100 99 100 99 99 49 46 28 26 24 20
21 29 36 36 39 45 46 50 44 52 64 66 67 100 92 100 100 99 100 98 71 92 80 30 24 22 21
21 25 29 37 46 51 52 55 62 68 70 75 100 87 100 100 100 100 99 96 100 88 47 34 33 32 31
20 22 36 44 50 58 61 70 75 74 73 93 98 100 100 100 100 100 100 98 92 81 65 50 42 41 41
23 27 44 48 56 65 74 80 86 86 88 100 81 97 100 100 99 100 99 96 99 96 85 74 63 55 49
27 33 48 53 62 64 72 78 85 85 78 91 85 100 100 100 95 100 100 98 100 99 86 71 67 68 62
33 46 56 59 69 76 77 74 77 76 74 87 99 100 100 99 100 100 100 100 100 100 98 88 79 73 69
49 63 63 70 78 71 72 69 71 76 81 82 87 92 95 100 100 97 100 100 100 100 100 100 100 100 99
74 78 73 83 75 71 71 74 76 72 72 78 88 98 100 100 98 91 92 100 99 99 96 94 97 100 100
88 88 88 89 82 74 70 64 72 82 90 96 97 94 96 99 96 95 97 93 91 90 91 96 98 100 100
100 99 88 86 81 79 73 76 80 84 85 86 86 89 92 95 97 95 90 91 90 94 97 98 96 96 95
100 100 97 91 96 94 86 86 90 91 92 92 90 93 98 100 96 87 79 72 73 85 90 88 83 80 85
100 100 99 100 98 95 96 95 93 93 92 88 85 87 91 89 84 69 44 30 27 31 37 49 54 56 77
97 100 100 100 99 99 95 94 89 88 93 92 88 85 74 46 27 18 11 10 11 12 12 13 20 20 23

GFSFLT2_500_rhum_087.txt.gz
RH
6 6 5 5 7 12 14 18 21 23 21 22 25 27 29 31 45 66 87 97 100 100 100 98 99 95 65
7 8 10 12 13 13 15 19 21 26 26 26 36 37 38 45 52 75 88 100 100 100 99 100 99 98 86
9 13 16 16 15 13 16 20 24 24 29 34 34 35 46 52 55 50 68 85 100 100 100 100 96 75 42
10 11 15 20 18 16 15 22 22 26 32 38 47 48 45 59 59 65 94 94 94 100 100 99 98 55 93
13 13 15 18 17 16 15 17 28 39 42 44 43 54 69 73 65 80 100 100 100 100 100 100 79 72 72
16 19 20 19 19 19 16 21 38 38 51 59 64 70 79 99 98 100 100 100 100 100 97 93 79 93 51
18 25 26 25 23 20 19 27 38 44 55 64 71 82 80 81 85 96 100 100 100 100 100 100 100 86 55
22 26 27 27 24 20 20 31 38 46 54 66 74 63 74 85 89 96 100 99 100 100 100 100 97 94 80
26 26 28 26 26 24 33 46 43 53 57 57 68 68 71 82 85 99 94 100 100 100 99 100 100 99 97
21 23 23 28 34 38 49 56 59 62 61 58 66 68 76 71 78 100 97 94 100 100 100 100 100 100 98
26 37 39 40 47 54 66 68 69 64 64 61 72 69 64 68 82 88 97 99 100 100 100 98 100 100 100
37 47 46 50 54 72 74 74 70 68 67 70 68 66 73 82 82 94 93 100 100 98 98 96 97 100 99
49 54 54 56 75 85 86 82 77 71 68 68 63 70 77 83 81 85 94 100 98 92 90 89 89 89 93
57 57 60 71 96 94 95 84 80 75 72 70 76 84 84 84 87 91 94 99 98 90 84 82 83 84 85
63 69 76 86 98 97 98 86 88 85 84 82 79 86 91 90 89 89 92 95 92 79 78 75 69 68 74
67 79 87 96 99 100 100 95 93 95 94 88 86 89 89 88 86 90 88 82 80 66 37 24 17 14 14
75 78 89 96 97 100 100 96 90 98 95 88 90 91 92 88 77 71 58 44 29 15 11 12 13 10 9

GFSFLT2_500_rhum_090.txt.gz
RH
10 9 6 8 8 8 8 12 14 13 12 13 16 19 21 24 32 31 33 39 44 67 97 100 98 99 100
12 9 7 8 9 10 10 10 12 14 13 13 16 20 27 34 38 38 40 44 48 46 62 75 99 100 99
14 12 9 9 10 10 10 9 9 13 13 12 13 18 30 39 41 47 44 54 51 60 78 73 91 100 99
17 12 8 8 10 10 10 9 12 14 12 13 13 23 34 41 42 50 58 70 69 80 100 99 99 97 96
17 13 9 9 11 11 10 11 16 19 18 15 17 22 32 42 50 56 66 88 86 100 100 100 100 100 100
19 14 9 10 13 12 13 17 19 20 19 18 19 29 36 49 59 62 67 83 81 90 100 100 100 100 100
21 17 12 13 14 13 17 20 21 21 19 19 22 33 34 60 68 68 80 81 92 99 100 100 100 100 91
22 18 14 15 14 14 17 16 16 16 17 16 34 38 43 54 66 67 80 70 94 93 99 96 99 100 100
24 20 19 21 17 19 16 16 18 23 26 33 45 48 51 60 64 59 70 72 85 78 79 98 96 97 98
25 26 25 23 21 18 16 26 31 34 39 50 62 61 56 59 62 68 67 72 82 91 97 100 100 100 100
40 36 31 29 22 26 31 40 36 43 54 56 64 67 64 64 74 72 75 95 96 84 90 96 90 86 82
43 40 34 29 30 37 52 47 50 67 67 68 70 73 72 73 71 77 83 82 76 82 96 100 100 98 95
51 47 33 39 41 51 49 58 70 82 79 72 72 70 76 73 78 80 81 83 79 81 88 90 93 94 98
58 46 43 44 52 58 59 71 91 96 85 83 85 86 88 85 84 84 84 86 88 85 88 92 92 85 83
59 48 48 55 60 70 74 83 100 100 95 96 92 91 91 92 89 88 90 92 89 93 92 86 76 71 68
53 56 57 60 68 77 84 93 100 100 100 100 98 96 99 96 92 86 83 83 85 88 90 83 77 61 37
59 64 64 68 79 82 87 97 100 100 100 100 99 100 100 92 84 81 81 77 76 76 68 54 38 17 12

GFSFLT2_500_rhum_093.txt.gz
RH
40 29 14 11 11 9 8 10 13 13 9 8 7 8 12 12 11 10 12 22 29 36 37 40 43 40 53
30 12 13 14 13 11 12 12 10 10 9 7 7 10 11 11 11 11 15 20 30 33 43 48 40 42 53
12 13 14 16 17 16 12 11 9 10 10 8 9 12 14 13 14 14 20 30 39 49 58 55 53 58 76
13 14 16 17 18 18 12 9 10 11 11 9 13 15 17 17 15 21 24 29 36 48 49 81 76 76 82
15 14 16 17 19 22 16 10 11 12 10 11 15 16 18 17 17 25 28 45 52 45 54 63 66 80 88
13 13 15 19 27 25 18 12 11 12 12 12 14 14 16 17 17 26 38 54 55 53 64 79 57 80 93
15 16 29 36 33 27 21 15 13 13 14 14 15 14 19 20 26 38 42 50 51 60 72 70 62 85 86
26 30 38 37 33 25 22 18 14 15 15 15 16 20 22 33 49 50 46 44 48 65 78 74 68 85 99
40 39 39 39 32 27 25 19 16 17 16 14 22 31 31 50 65 63 47 51 54 66 83 88 78 84 87
47 45 40 36 34 34 26 23 20 19 18 21 27 30 31 52 65 63 55 59 64 68 71 73 74 76 85
65 45 40 40 44 38 37 30 28 22 24 30 34 34 51 62 63 66 60 66 69 79 81 79 79 82 77
55 57 64 63 54 54 47 43 29 30 35 36 42 55 63 72 67 70 73 70 76 87 91 84 80 85 89
76 83 86 75 76 67 59 46 39 46 46 58 67 83 75 73 73 74 74 80 83 81 78 80 84 85 82
99 98 98 89 85 73 66 46 52 50 61 70 91 88 82 83 81 81 87 92 89 82 82 86 86 88 92
100 100 100 99 93 92 66 52 59 61 76 80 86 94 96 94 91 93 91 90 87 83 80 79 80 86 86
100 100 100 100 97 92 60 58 61 68 79 82 95 97 100 100 96 95 94 96 96 91 84 83 87 91 90
100 100 100 100 100 90 61 63 67 73 81 96 99 99 99 100 98 95 98 99 90 86 80 72 74 74 73

GFSFLT2_500_rhum_096.txt.gz
RH
99 97 94 74 78 62 43 26 12 10 11 12 14 14 13 11 8 6 9 10 12 12 15 19 23 27 31
95 96 90 78 79 47 15 13 14 12 11 12 14 13 13 13 8 7 10 14 14 13 17 16 22 31 39
93 84 73 60 36 14 14 16 17 16 16 17 13 11 12 12 8 8 12 12 14 15 20 20 29 34 48
66 58 44 36 17 13 15 16 17 20 24 21 11 10 11 12 12 9 11 11 14 16 22 26 40 30 55
52 39 17 14 13 14 15 16 17 21 27 21 13 12 12 13 13 11 12 13 17 22 27 36 40 54 51
49 42 44 45 25 20 14 15 18 30 30 21 15 14 13 14 13 11 11 14 20 29 30 37 46 60 56
62 94 56 21 25 15 14 16 30 34 29 24 18 15 14 15 14 11 12 20 32 42 37 41 47 61 62
70 71 81 27 15 16 15 23 35 37 32 27 22 18 17 16 14 13 18 27 48 49 40 42 44 62 60
73 59 36 18 16 18 25 32 38 36 32 30 26 24 19 17 15 18 23 33 52 54 41 44 49 68 65
36 30 23 25 32 37 38 40 40 36 40 39 35 30 22 18 20 23 29 40 55 57 49 46 52 71 68
64 48 42 41 41 50 49 58 65 54 55 48 42 32 27 22 23 28 41 57 57 53 49 60 55 72 73
69 67 64 64 66 82 88 97 80 72 68 60 53 38 32 32 27 31 53 70 69 60 55 60 72 86 77
82 71 64 69 80 80 99 90 92 87 79 65 53 45 40 46 38 64 70 73 73 65 59 69 84 82 79
100 96 88 84 94 97 94 94 100 97 84 71 59 48 53 53 66 83 71 74 68 70 71 77 80 79 82
100 100 100 100 96 92 97 100 100 98 95 89 60 56 62 68 86 87 82 83 81 82 84 86 83 84 84
100 98 100 100 100 100 100 100 100 97 98 82 62 60 72 84 94 91 90 91 90 85 83 82 80 83 82
100 100 98 100 95 100 100 100 100 98 94 88 69 64 78 95 100 97 93 99 96 91 84 82 80 78 77

GFSFLT2_500_rhum_099.txt.gz
RH
88 95 97 96 96 95 100 96 57 33 38 54 30 11 11 13 13 14 16 17 15 11 7 7 8 10 11
100 97 97 97 98 97 98 97 82 80 52 27 28 13 13 10 15 16 16 16 16 15 10 7 8 10 12
97 97 96 96 96 96 96 96 94 80 54 19 15 17 19 20 16 18 14 12 14 16 10 8 10 12 16
96 98 97 93 90 93 92 79 62 62 21 14 17 19 22 24 24 20 16 13 13 15 12 8 10 14 21
96 98 98 94 94 80 72 74 77 53 18 15 16 17 20 29 25 22 19 14 13 16 14 9 12 17 24
98 98 96 98 94 69 51 37 24 16 15 15 15 16 27 31 28 26 22 15 14 15 14 10 14 28 30
98 98 100 99 96 90 69 36 23 21 29 32 30 23 44 34 30 28 23 16 16 15 12 14 21 32 40
84 90 97 96 92 100 99 90 92 49 21 19 18 25 35 37 35 29 23 18 17 15 14 18 30 34 34
97 100 92 99 100 99 97 98 99 99 28 17 18 25 35 38 36 31 26 21 18 16 16 22 33 43 36
69 62 74 87 98 100 100 94 74 58 19 20 30 36 40 41 44 42 33 24 19 17 19 28 37 47 38
58 54 46 43 81 100 98 69 50 29 26 36 42 51 59 90 74 53 38 25 20 19 24 33 47 48 42
48 63 67 54 46 44 42 44 48 67 76 74 87 93 97 79 69 54 36 27 23 23 30 48 59 52 51
59 76 96 95 84 80 85 73 84 97 93 92 92 96 94 75 69 51 40 30 29 30 54 62 71 63 59
57 88 100 100 100 99 95 96 94 89 82 86 89 87 86 84 72 54 44 40 38 61 66 70 70 65 78
72 98 100 100 100 100 100 99 94 88 84 90 96 97 93 94 82 68 53 52 64 79 72 70 71 82 82
99 100 100 100 100 100 100 100 100 100 92 96 96 99 100 100 92 64 66 60 81 89 85 86 92 93 88
100 100 100 100 100 100 100 100 100 100 100 96 99 99 100 100 83 71 66 71 90 90 93 98 96 94 92

GFSFLT2_500_rhum_102.txt.gz
RH
81 85 81 89 81 82 84 93 98 97 97 95 98 83 31 23 24 23 12 10 15 16 16 17 18 16 16
90 84 90 92 92 91 99 98 96 97 95 97 92 68 52 48 59 39 19 14 18 19 18 18 19 20 19
93 96 97 96 93 96 98 97 98 96 93 97 96 83 76 79 44 23 16 21 23 23 20 19 20 21 19
98 97 98 96 97 96 97 97 97 97 97 98 96 90 89 64 28 16 18 21 26 27 24 22 23 24 18
100 91 100 99 100 97 98 95 86 96 95 94 89 76 65 60 25 15 16 19 26 28 28 31 25 25 18
95 98 100 95 98 99 98 96 98 97 89 75 76 82 73 59 26 16 16 17 36 43 46 30 26 18 18
97 96 96 99 98 100 98 98 98 98 99 94 83 56 35 20 19 19 27 26 55 58 41 31 28 18 19
57 84 90 97 98 97 97 98 97 98 98 98 94 93 64 39 31 74 62 40 39 39 38 42 38 18 20
48 64 66 84 75 89 96 100 99 100 97 99 100 97 97 98 90 37 20 23 34 39 47 53 36 18 17
23 41 70 77 98 100 87 100 99 100 100 99 99 98 98 90 31 19 28 36 44 55 70 60 26 19 17
12 18 25 47 69 87 99 100 98 95 100 98 100 97 99 68 30 33 42 55 73 76 66 47 25 20 20
12 13 14 25 49 61 65 77 90 76 72 78 87 85 58 54 50 50 55 79 80 72 56 44 25 23 23
11 16 16 21 39 51 62 66 64 55 51 45 49 49 47 65 82 89 87 84 80 68 54 36 28 28 44
21 12 15 25 42 42 56 77 96 91 84 77 72 74 84 85 77 70 75 84 76 71 52 45 32 44 61
95 100 82 51 93 97 71 98 96 100 100 99 99 94 87 78 76 84 91 85 84 77 66 47 43 65 66
38 96 97 88 68 98 100 100 100 100 100 98 94 96 89 87 91 95 96 94 95 88 70 52 57 78 77
35 55 99 100 100 98 98 100 100 100 100 98 97 100 100 100 100 96 95 90 95 95 67 61 68 86 90

GFSFLT2_500_rhum_105.txt.gz
RH
89 98 97 96 97 97 96 95 89 81 82 92 98 98 98 96 96 97 97 56 19 20 30 35 14 16 18
95 98 93 95 97 96 97 97 89 90 86 88 98 96 96 96 96 97 95 54 35 58 55 24 18 20 20
94 95 93 98 89 96 97 97 96 97 90 92 97 97 92 89 97 98 96 77 75 64 27 18 20 22 24
97 96 96 97 94 96 97 97 96 96 95 98 98 95 94 98 97 98 93 90 77 45 16 16 18 22 28
96 97 97 94 98 100 98 97 97 95 90 95 100 97 97 96 91 96 90 82 66 58 26 16 16 26 36
81 95 97 98 97 98 98 96 98 100 98 96 94 92 86 91 88 77 78 77 68 59 25 17 20 30 46
16 54 37 75 95 97 98 99 98 99 99 98 97 99 92 86 80 79 78 74 51 24 19 22 58 43 41
7 6 33 90 98 83 97 98 97 99 95 98 96 99 98 95 94 94 91 94 86 30 33 55 40 30 36
12 9 7 17 36 82 99 72 96 95 96 98 99 98 98 96 83 84 96 100 99 84 70 29 22 39 45
11 12 11 8 13 32 30 66 97 100 96 96 99 99 94 93 92 93 99 99 88 65 28 23 34 49 64
5 9 12 12 9 9 22 28 46 76 99 93 100 100 98 100 99 100 97 99 86 63 57 59 53 66 66
3 5 9 12 11 11 15 22 49 70 94 100 100 99 100 100 98 100 99 96 90 76 52 62 69 69 62
4 5 11 12 12 12 27 24 34 63 69 89 100 99 96 100 100 92 62 51 52 69 80 75 65 64 55
7 8 13 16 19 26 28 29 66 56 82 99 100 91 85 88 71 57 51 47 59 74 69 60 61 62 58
12 13 27 20 61 92 93 100 70 58 84 91 84 88 84 78 69 67 64 73 86 79 65 64 71 66 61
22 24 25 16 56 88 89 100 100 100 100 100 100 100 100 100 100 94 87 91 83 71 68 80 83 76 69
34 27 23 17 35 100 100 100 99 92 100 80 100 100 100 99 100 100 96 91 80 76 84 96 91 85 79

GFSFLT2_500_rhum_108.txt.gz
RH
96 98 96 95 96 95 95 96 96 96 94 95 95 98 90 86 88 86 98 100 97 97 98 92 36 28 37
97 96 96 96 95 95 96 96 95 95 95 98 100 100 92 94 95 90 92 96 96 96 97 70 57 50 46
96 96 96 96 96 95 94 96 88 90 92 96 98 97 97 93 90 88 90 98 91 99 94 91 78 73 55
98 94 96 97 91 95 96 96 95 86 89 94 97 97 97 97 94 91 95 96 99 99 100 96 83 70 35
76 57 82 88 96 97 95 90 90 91 92 96 96 96 96 97 89 94 99 100 99 100 100 93 78 54 42
6 6 8 47 41 52 77 87 95 100 100 98 95 88 86 86 87 90 92 99 92 92 81 64 60 60 52
11 11 10 8 12 19 51 70 54 57 96 96 98 95 98 95 94 97 99 92 90 75 68 69 68 58 37
13 13 12 12 11 9 11 36 87 94 81 40 70 95 98 97 100 98 97 94 84 81 81 81 77 77 67
13 12 11 10 10 12 11 10 13 37 100 94 95 99 98 96 98 100 99 98 96 89 90 90 79 75 70
11 10 8 8 8 7 10 11 13 10 13 74 97 100 98 95 95 96 97 100 97 96 80 77 75 71 58
15 12 11 9 5 3 4 6 11 10 11 38 96 100 99 92 99 97 97 98 96 96 85 83 85 70 54
12 9 6 5 4 3 3 3 8 11 13 13 27 54 96 100 99 94 98 100 97 94 91 99 93 79 66
6 5 4 3 3 3 3 3 8 11 14 13 26 24 65 100 100 96 96 99 99 97 99 100 97 79 67
2 2 2 3 4 4 4 4 7 12 33 36 51 68 61 88 100 100 100 100 100 99 98 97 71 60 61
4 3 4 5 6 8 7 7 24 28 94 80 99 87 99 100 100 100 100 99 100 98 96 70 55 60 66
16 14 11 14 25 25 17 16 12 66 100 92 99 100 100 97 100 100 98 100 96 77 71 65 68 77 71
29 31 34 35 37 52 98 67 22 20 79 100 89 99 100 100 100 100 100 100 99 85 72 80 82 72 68

GFSFLT2_500_rhum_111.txt.gz
RH
99 84 94 96 97 96 96 95 96 96 95 96 96 98 100 97 96 94 99 93 87 84 83 95 95 96 96
100 96 96 100 99 96 98 97 95 96 96 96 96 97 97 92 94 96 99 97 91 86 86 83 92 94 98
96 97 97 100 97 97 97 98 97 97 97 97 96 96 97 97 96 99 98 96 96 95 86 87 85 83 85
98 97 97 98 95 98 96 94 94 93 96 97 97 96 96 96 96 98 98 97 96 97 89 97 91 91 90
94 58 58 77 79 71 35 39 74 94 95 97 96 90 92 94 96 99 97 95 96 95 84 92 85 89 98
10 13 8 8 8 8 8 6 13 34 49 54 55 73 90 89 98 98 98 93 87 79 85 91 84 87 100
15 14 12 11 11 10 9 10 9 18 14 21 36 43 42 88 96 96 95 92 88 86 86 86 84 86 90
19 19 19 18 17 16 14 13 12 11 11 9 16 20 58 59 42 68 72 89 92 95 100 92 84 80 70
24 22 22 24 22 20 17 16 14 13 13 12 11 14 41 89 84 82 95 86 81 94 98 99 90 85 82
44 42 38 34 35 34 29 21 16 13 11 11 11 12 15 74 95 100 96 94 90 94 87 91 97 97 96
44 43 42 40 38 36 33 31 28 21 11 8 8 9 15 14 63 97 100 100 100 100 94 100 93 84 98
42 42 40 36 34 32 29 27 25 24 20 9 6 6 10 19 29 36 62 100 100 98 100 88 81 79 100
38 34 31 28 25 22 19 18 14 14 14 10 5 4 8 20 23 28 93 100 100 100 95 97 100 94 97
24 24 23 19 15 12 9 5 7 8 6 6 4 3 4 10 18 28 54 100 100 100 95 97 97 90 97
4 4 4 5 4 4 3 3 3 3 3 4 4 3 4 8 19 47 100 80 91 98 100 100 100 96 100
3 3 3 3 3 3 3 3 3 3 3 3 4 4 4 9 17 64 100 100 100 95 100 96 86 98 100
13 14 12 10 12 11 8 6 6 8 8 10 9 7 8 71 99 92 56 90 100 88 86 93 100 100 100

GFSFLT2_500_rhum_114.txt.gz
RH
57 60 73 91 97 93 84 88 97 96 97 97 97 93 94 96 97 97 95 95 95 93 93 93 93 88 80
69 65 75 85 97 97 98 99 96 96 96 96 96 98 99 96 99 96 95 96 95 94 93 93 97 92 91
91 98 97 97 98 97 97 98 97 97 96 96 95 96 96 96 97 97 96 95 95 96 91 91 95 96 94
97 97 98 98 98 98 98 97 96 97 96 98 97 97 95 94 96 97 97 96 96 95 90 96 98 98 95
98 99 99 98 97 98 96 94 98 99 96 94 96 93 84 92 96 94 96 96 97 98 95 99 98 98 96
90 87 72 92 64 51 76 83 33 77 42 27 35 57 97 88 62 76 90 97 96 97 99 97 98 98 96
20 20 18 17 20 23 14 10 10 10 24 13 12 22 48 33 38 30 65 88 85 94 96 98 97 99 93
31 35 31 28 26 23 18 15 12 12 12 14 14 10 10 13 18 44 31 54 51 61 80 95 97 95 86
34 36 40 44 45 41 33 26 23 21 19 15 14 14 13 12 11 13 25 40 29 35 67 76 84 95 96
49 52 49 48 50 49 48 47 40 36 34 28 24 20 16 14 13 12 15 20 28 42 55 70 88 88 96
33 41 44 48 54 53 54 52 52 48 45 45 41 34 27 20 15 13 12 12 16 30 57 70 78 89 92
34 40 47 52 51 51 52 50 49 49 50 45 45 44 39 34 25 15 12 12 14 13 25 67 72 100 92
46 46 47 48 50 52 50 51 51 49 50 50 46 43 41 36 31 18 11 10 16 16 32 35 30 96 100
31 30 31 32 33 36 37 38 42 44 43 42 41 41 39 36 30 24 14 9 9 43 44 100 68 54 86
11 11 10 12 13 15 18 17 16 15 18 21 28 28 24 25 22 21 18 10 8 16 100 100 98 58 97
4 3 4 4 3 3 4 5 5 4 4 4 4 6 10 9 8 9 9 8 7 9 26 55 98 99 97
9 7 6 5 5 4 4 4 3 3 3 3 3 3 3 4 4 4 4 5 5 10 27 97 100 100 100

GFSFLT2_500_rhum_117.txt.gz
RH
61 59 54 54 60 84 74 69 74 69 76 86 100 93 96 97 97 98 94 88 98 97 97 97 97 96 95
62 55 56 68 69 79 76 87 100 96 95 98 98 91 99 98 97 95 83 86 91 93 97 95 96 95 95
77 93 99 93 86 87 87 91 87 91 94 95 97 98 97 98 96 98 97 97 91 93 96 96 96 94 96
99 100 99 97 97 92 95 95 86 98 97 98 97 96 97 97 97 97 97 97 96 96 97 96 96 96 95
98 99 99 97 96 97 97 99 98 98 98 97 97 97 96 98 98 95 98 96 97 97 96 97 96 98 97
63 72 94 63 83 99 100 97 97 96 98 100 98 97 97 95 97 99 97 95 92 96 97 97 97 97 97
24 20 28 21 22 20 75 96 96 99 95 95 92 91 75 57 66 93 97 81 64 89 98 97 97 98 98
32 34 30 28 23 23 21 21 37 46 71 61 45 19 49 49 20 34 56 49 45 67 96 98 98 97 97
51 43 37 34 33 33 34 27 22 23 21 19 21 17 13 20 32 18 11 16 41 48 52 49 59 67 82
65 59 53 49 47 46 48 45 36 36 43 35 24 20 17 17 16 14 14 12 12 15 37 49 38 41 50
33 28 29 32 29 25 25 27 31 43 50 44 42 43 38 26 22 20 17 15 13 12 13 41 51 57 65
38 37 33 30 26 24 22 19 17 16 25 36 50 54 48 46 45 36 27 22 18 15 13 12 37 66 83
36 31 30 28 28 26 23 19 16 16 19 23 25 38 54 55 51 48 50 41 30 21 17 14 13 15 35
41 42 44 44 43 46 44 43 34 32 30 29 30 34 36 44 56 58 56 54 46 38 24 16 14 13 15
13 16 18 21 22 23 25 28 33 36 38 42 44 43 42 43 45 52 59 58 53 44 35 24 17 14 17
4 4 4 4 4 5 8 11 11 10 13 15 23 31 35 39 45 48 51 57 55 47 37 20 22 15 21
12 10 7 6 5 5 5 4 4 4 4 4 6 9 16 22 28 32 42 47 47 40 40 35 20 12 71